QPF
0.08 0.08 0.08 0.07 0.05 0.06 0.08 0.07 0.10 0.11 0.14 0.15 0.13 0.11 0.09 0.09 0.09 0.09 0.07 0.05 0.05 0.04 0.04 0.05 0.05 0.05 0.06 0.07 0.08 0.07 0.10 0.10 0.08 0.07 0.06 0.05 0.04 0.04 0.04 0.03 0.03 0.03 0.03
0.07 0.07 0.09 0.08 0.06 0.06 0.07 0.08 0.10 0.12 0.18 0.19 0.15 0.11 0.09 0.11 0.11 0.09 0.09 0.06 0.04 0.03 0.04 0.04 0.05 0.05 0.05 0.05 0.06 0.06 0.07 0.08 0.10 0.09 0.07 0.06 0.04 0.04 0.05 0.04 0.04 0.04 0.04
0.06 0.07 0.08 0.07 0.07 0.07 0.08 0.10 0.11 0.12 0.12 0.10 0.10 0.09 0.10 0.10 0.10 0.10 0.09 0.08 0.05 0.03 0.03 0.04 0.04 0.04 0.04 0.04 0.07 0.09 0.08 0.08 0.06 0.08 0.10 0.08 0.05 0.04 0.04 0.04 0.03 0.03 0.04
0.07 0.07 0.07 0.05 0.06 0.08 0.09 0.08 0.07 0.07 0.07 0.07 0.06 0.05 0.05 0.07 0.08 0.09 0.08 0.09 0.08 0.07 0.08 0.06 0.05 0.04 0.03 0.04 0.07 0.08 0.06 0.05 0.05 0.07 0.09 0.11 0.09 0.05 0.05 0.05 0.04 0.04 0.04
0.05 0.06 0.07 0.08 0.07 0.07 0.07 0.07 0.08 0.08 0.06 0.05 0.04 0.05 0.04 0.05 0.07 0.08 0.09 0.10 0.10 0.10 0.08 0.05 0.04 0.04 0.04 0.03 0.03 0.05 0.05 0.04 0.04 0.06 0.06 0.08 0.11 0.08 0.06 0.06 0.06 0.06 0.06
0.04 0.05 0.07 0.07 0.06 0.07 0.07 0.08 0.08 0.06 0.06 0.06 0.04 0.04 0.05 0.04 0.06 0.08 0.08 0.08 0.09 0.08 0.06 0.06 0.05 0.05 0.04 0.04 0.05 0.05 0.06 0.06 0.06 0.07 0.09 0.09 0.10 0.11 0.08 0.07 0.08 0.08 0.06
0.03 0.04 0.04 0.06 0.04 0.06 0.06 0.07 0.06 0.05 0.06 0.05 0.04 0.05 0.05 0.05 0.07 0.07 0.06 0.07 0.08 0.07 0.06 0.07 0.07 0.06 0.05 0.05 0.06 0.05 0.04 0.04 0.05 0.07 0.10 0.12 0.12 0.13 0.11 0.07 0.07 0.06 0.06
0.04 0.05 0.05 0.04 0.03 0.05 0.07 0.06 0.05 0.05 0.04 0.05 0.05 0.07 0.06 0.06 0.06 0.04 0.05 0.06 0.06 0.05 0.06 0.07 0.08 0.06 0.05 0.06 0.07 0.06 0.04 0.03 0.04 0.05 0.07 0.08 0.08 0.08 0.09 0.08 0.07 0.07 0.06
0.04 0.06 0.05 0.05 0.04 0.04 0.05 0.04 0.03 0.03 0.04 0.05 0.06 0.07 0.06 0.06 0.06 0.05 0.05 0.05 0.05 0.05 0.06 0.07 0.07 0.06 0.05 0.05 0.06 0.06 0.05 0.04 0.04 0.05 0.06 0.05 0.04 0.04 0.06 0.07 0.07 0.07 0.06
0.05 0.06 0.06 0.06 0.06 0.05 0.05 0.03 0.03 0.03 0.04 0.04 0.05 0.06 0.05 0.06 0.06 0.05 0.05 0.05 0.05 0.05 0.05 0.06 0.07 0.07 0.05 0.05 0.07 0.06 0.05 0.05 0.04 0.04 0.06 0.05 0.04 0.03 0.04 0.06 0.06 0.05 0.05
0.04 0.04 0.05 0.05 0.04 0.05 0.06 0.06 0.06 0.04 0.05 0.05 0.04 0.05 0.07 0.08 0.07 0.07 0.07 0.06 0.05 0.04 0.04 0.05 0.05 0.06 0.06 0.06 0.06 0.05 0.05 0.05 0.05 0.05 0.05 0.05 0.05 0.03 0.03 0.05 0.05 0.05 0.05
0.03 0.03 0.05 0.05 0.04 0.04 0.05 0.05 0.05 0.05 0.05 0.05 0.05 0.06 0.06 0.06 0.07 0.06 0.06 0.06 0.04 0.03 0.03 0.03 0.03 0.03 0.05 0.06 0.06 0.06 0.05 0.05 0.05 0.04 0.03 0.03 0.04 0.05 0.04 0.05 0.06 0.06 0.06
0.02 0.04 0.04 0.07 0.06 0.06 0.05 0.05 0.06 0.06 0.05 0.06 0.06 0.05 0.05 0.04 0.04 0.04 0.05 0.04 0.03 0.02 0.03 0.04 0.04 0.03 0.03 0.03 0.06 0.07 0.04 0.03 0.03 0.04 0.03 0.02 0.02 0.02 0.03 0.03 0.05 0.05 0.05
0.02 0.03 0.05 0.05 0.06 0.06 0.06 0.08 0.07 0.06 0.06 0.05 0.03 0.04 0.04 0.04 0.04 0.04 0.05 0.06 0.05 0.04 0.05 0.05 0.05 0.04 0.03 0.02 0.05 0.08 0.08 0.04 0.04 0.04 0.03 0.03 0.02 0.02 0.01 0.01 0.02 0.04 0.04
0.02 0.04 0.06 0.07 0.06 0.05 0.06 0.07 0.07 0.07 0.07 0.05 0.04 0.04 0.04 0.03 0.03 0.03 0.04 0.06 0.08 0.06 0.05 0.06 0.06 0.06 0.05 0.04 0.04 0.04 0.06 0.04 0.02 0.02 0.03 0.02 0.03 0.03 0.03 0.03 0.02 0.02 0.02
0.03 0.04 0.04 0.05 0.05 0.06 0.06 0.07 0.05 0.05 0.07 0.06 0.05 0.05 0.04 0.02 0.03 0.03 0.03 0.03 0.05 0.06 0.05 0.05 0.05 0.05 0.06 0.05 0.07 0.06 0.07 0.05 0.02 0.02 0.02 0.02 0.02 0.03 0.03 0.02 0.02 0.03 0.03
0.03 0.02 0.02 0.02 0.02 0.03 0.05 0.06 0.05 0.06 0.06 0.06 0.06 0.06 0.04 0.04 0.04 0.03 0.03 0.03 0.05 0.05 0.05 0.05 0.05 0.04 0.04 0.07 0.09 0.08 0.08 0.06 0.03 0.02 0.02 0.02 0.02 0.02 0.01 0.01 0.01 0.02 0.02
0.02 0.01 0.02 0.02 0.02 0.03 0.04 0.05 0.05 0.06 0.06 0.06 0.05 0.06 0.05 0.06 0.06 0.05 0.05 0.05 0.05 0.05 0.06 0.05 0.05 0.04 0.04 0.05 0.06 0.05 0.05 0.05 0.04 0.02 0.01 0.01 0.01 0.01 0.01 0.01 0.01 0.01 0.02
0.01 0.01 0.02 0.02 0.03 0.03 0.03 0.04 0.04 0.05 0.05 0.04 0.05 0.06 0.06 0.06 0.05 0.05 0.06 0.05 0.06 0.06 0.06 0.05 0.04 0.04 0.03 0.04 0.06 0.06 0.05 0.06 0.04 0.02 0.02 0.01 0.01 0.01 0.00 0.00 0.00 0.00 0.01
0.02 0.02 0.03 0.03 0.03 0.03 0.03 0.03 0.03 0.03 0.04 0.04 0.04 0.05 0.05 0.05 0.04 0.05 0.05 0.06 0.06 0.06 0.05 0.05 0.04 0.03 0.02 0.03 0.04 0.04 0.04 0.05 0.06 0.04 0.03 0.02 0.02 0.02 0.01 0.00 0.00 0.00 0.00
0.03 0.04 0.05 0.05 0.05 0.04 0.04 0.03 0.03 0.04 0.04 0.05 0.05 0.06 0.06 0.06 0.06 0.06 0.06 0.06 0.06 0.06 0.05 0.05 0.04 0.04 0.04 0.04 0.03 0.04 0.05 0.06 0.07 0.06 0.06 0.04 0.03 0.04 0.03 0.03 0.02 0.01 0.01
0.05 0.06 0.06 0.06 0.06 0.06 0.05 0.05 0.05 0.05 0.07 0.07 0.08 0.09 0.09 0.08 0.08 0.09 0.08 0.08 0.07 0.05 0.05 0.05 0.05 0.05 0.05 0.06 0.06 0.06 0.05 0.06 0.05 0.04 0.04 0.04 0.03 0.03 0.04 0.03 0.03 0.02 0.03
0.06 0.06 0.07 0.08 0.06 0.05 0.05 0.05 0.05 0.05 0.06 0.07 0.08 0.09 0.10 0.09 0.09 0.09 0.10 0.08 0.05 0.05 0.04 0.04 0.04 0.04 0.05 0.06 0.06 0.05 0.06 0.06 0.05 0.04 0.05 0.04 0.03 0.02 0.02 0.02 0.03 0.02 0.03
0.05 0.05 0.05 0.05 0.04 0.03 0.03 0.02 0.03 0.04 0.05 0.07 0.08 0.09 0.11 0.12 0.10 0.07 0.05 0.05 0.05 0.04 0.04 0.03 0.03 0.03 0.04 0.05 0.06 0.06 0.06 0.05 0.04 0.04 0.05 0.04 0.03 0.03 0.02 0.03 0.03 0.03 0.03
0.04 0.04 0.03 0.03 0.03 0.02 0.02 0.02 0.03 0.03 0.05 0.06 0.05 0.05 0.06 0.07 0.05 0.04 0.04 0.05 0.04 0.04 0.03 0.02 0.02 0.02 0.02 0.03 0.04 0.05 0.05 0.04 0.04 0.04 0.05 0.04 0.03 0.04 0.04 0.04 0.04 0.04 0.03
0.03 0.04 0.03 0.03 0.03 0.03 0.04 0.03 0.03 0.03 0.04 0.05 0.04 0.03 0.04 0.04 0.04 0.03 0.02 0.03 0.03 0.03 0.02 0.02 0.02 0.02 0.02 0.02 0.02 0.03 0.05 0.05 0.05 0.05 0.05 0.05 0.05 0.05 0.06 0.06 0.05 0.05 0.04
MSLP
1011.62 1011.90 1012.15 1012.40 1012.65 1012.88 1013.07 1013.20 1013.23 1013.17 1013.01 1012.80 1012.58 1012.42 1012.38 1012.50 1012.78 1013.21 1013.74 1014.30 1014.84 1015.30 1015.65 1015.88 1016.02 1016.09 1016.13 1016.17 1016.23 1016.32 1016.42 1016.54 1016.65 1016.76 1016.86 1016.95 1017.04 1017.13 1017.20 1017.27 1017.31 1017.33 1017.31
1011.39 1011.65 1011.90 1012.16 1012.42 1012.66 1012.86 1013.01 1013.06 1013.02 1012.90 1012.73 1012.56 1012.43 1012.40 1012.50 1012.74 1013.10 1013.54 1014.01 1014.46 1014.86 1015.18 1015.41 1015.57 1015.67 1015.75 1015.82 1015.90 1015.98 1016.07 1016.16 1016.24 1016.32 1016.39 1016.47 1016.55 1016.63 1016.72 1016.78 1016.83 1016.83 1016.81
1011.12 1011.38 1011.64 1011.92 1012.20 1012.48 1012.71 1012.88 1012.98 1012.99 1012.92 1012.80 1012.67 1012.58 1012.55 1012.62 1012.78 1013.04 1013.35 1013.69 1014.02 1014.33 1014.58 1014.78 1014.95 1015.09 1015.22 1015.34 1015.46 1015.56 1015.66 1015.73 1015.79 1015.84 1015.89 1015.94 1016.00 1016.08 1016.16 1016.23 1016.27 1016.29 1016.26
1010.83 1011.09 1011.38 1011.69 1012.01 1012.32 1012.60 1012.82 1012.96 1013.02 1013.01 1012.95 1012.87 1012.80 1012.77 1012.79 1012.87 1012.99 1013.16 1013.34 1013.51 1013.68 1013.85 1014.01 1014.17 1014.34 1014.52 1014.70 1014.88 1015.04 1015.16 1015.25 1015.31 1015.34 1015.36 1015.39 1015.44 1015.50 1015.57 1015.63 1015.68 1015.70 1015.68
1010.54 1010.80 1011.12 1011.46 1011.82 1012.18 1012.49 1012.76 1012.95 1013.07 1013.11 1013.11 1013.08 1013.03 1012.99 1012.96 1012.95 1012.94 1012.94 1012.94 1012.95 1012.97 1013.02 1013.12 1013.26 1013.46 1013.69 1013.95 1014.20 1014.42 1014.61 1014.73 1014.80 1014.84 1014.85 1014.86 1014.87 1014.91 1014.96 1015.02 1015.07 1015.10 1015.09
1010.25 1010.53 1010.86 1011.23 1011.63 1012.02 1012.37 1012.67 1012.90 1013.07 1013.18 1013.23 1013.24 1013.22 1013.17 1013.10 1013.00 1012.87 1012.71 1012.54 1012.38 1012.26 1012.19 1012.21 1012.32 1012.53 1012.80 1013.13 1013.46 1013.77 1014.02 1014.20 1014.31 1014.36 1014.37 1014.36 1014.36 1014.37 1014.40 1014.44 1014.49 1014.52 1014.54
1009.99 1010.27 1010.61 1011.00 1011.41 1011.82 1012.19 1012.52 1012.78 1012.99 1013.14 1013.25 1013.30 1013.32 1013.28 1013.18 1013.02 1012.79 1012.51 1012.20 1011.90 1011.64 1011.46 1011.39 1011.46 1011.66 1011.96 1012.34 1012.74 1013.12 1013.45 1013.69 1013.85 1013.93 1013.95 1013.94 1013.92 1013.91 1013.92 1013.94 1013.98 1014.02 1014.06
1009.77 1010.04 1010.37 1010.75 1011.16 1011.56 1011.94 1012.28 1012.57 1012.81 1013.00 1013.15 1013.26 1013.31 1013.30 1013.20 1013.02 1012.74 1012.38 1011.98 1011.57 1011.20 1010.92 1010.78 1010.79 1010.96 1011.27 1011.67 1012.11 1012.55 1012.94 1013.25 1013.46 1013.58 1013.62 1013.62 1013.60 1013.57 1013.56 1013.57 1013.60 1013.65 1013.70
1009.60 1009.83 1010.13 1010.49 1010.87 1011.25 1011.62 1011.95 1012.25 1012.51 1012.75 1012.94 1013.10 1013.20 1013.23 1013.17 1013.00 1012.72 1012.34 1011.90 1011.43 1011.00 1010.66 1010.45 1010.40 1010.53 1010.80 1011.19 1011.64 1012.11 1012.53 1012.89 1013.15 1013.31 1013.40 1013.42 1013.40 1013.38 1013.36 1013.36 1013.39 1013.43 1013.49
1009.45 1009.64 1009.89 1010.19 1010.53 1010.88 1011.23 1011.55 1011.85 1012.13 1012.39 1012.62 1012.83 1012.99 1013.08 1013.07 1012.96 1012.72 1012.37 1011.94 1011.48 1011.03 1010.66 1010.40 1010.30 1010.37 1010.59 1010.93 1011.35 1011.80 1012.23 1012.61 1012.91 1013.12 1013.25 1013.31 1013.33 1013.33 1013.33 1013.33 1013.36 1013.40 1013.46
1009.30 1009.43 1009.63 1009.88 1010.16 1010.47 1010.78 1011.09 1011.38 1011.67 1011.94 1012.21 1012.45 1012.66 1012.81 1012.88 1012.83 1012.67 1012.40 1012.04 1011.63 1011.22 1010.85 1010.58 1010.43 1010.44 1010.58 1010.85 1011.21 1011.61 1012.02 1012.40 1012.72 1012.97 1013.15 1013.28 1013.35 1013.40 1013.43 1013.45 1013.49 1013.54 1013.59
1009.12 1009.20 1009.33 1009.53 1009.77 1010.03 1010.31 1010.59 1010.88 1011.15 1011.43 1011.71 1011.97 1012.21 1012.41 1012.54 1012.58 1012.51 1012.35 1012.10 1011.78 1011.44 1011.12 1010.86 1010.70 1010.65 1010.72 1010.90 1011.16 1011.49 1011.85 1012.21 1012.54 1012.83 1013.08 1013.27 1013.42 1013.53 1013.62 1013.69 1013.74 1013.80 1013.86
1008.88 1008.91 1009.00 1009.15 1009.35 1009.58 1009.83 1010.09 1010.35 1010.61 1010.87 1011.14 1011.39 1011.64 1011.85 1012.03 1012.14 1012.17 1012.12 1011.99 1011.81 1011.58 1011.35 1011.14 1010.98 1010.89 1010.89 1010.98 1011.16 1011.40 1011.69 1012.02 1012.35 1012.67 1012.98 1013.25 1013.49 1013.68 1013.84 1013.97 1014.06 1014.14 1014.20
1008.56 1008.57 1008.63 1008.75 1008.92 1009.13 1009.36 1009.59 1009.83 1010.06 1010.29 1010.51 1010.72 1010.94 1011.14 1011.33 1011.49 1011.61 1011.67 1011.68 1011.63 1011.54 1011.42 1011.29 1011.17 1011.08 1011.04 1011.06 1011.15 1011.31 1011.54 1011.82 1012.14 1012.49 1012.85 1013.19 1013.51 1013.80 1014.04 1014.23 1014.37 1014.48 1014.55
1008.15 1008.16 1008.21 1008.32 1008.48 1008.68 1008.90 1009.12 1009.32 1009.51 1009.69 1009.85 1010.00 1010.15 1010.32 1010.49 1010.67 1010.84 1011.00 1011.13 1011.23 1011.29 1011.30 1011.28 1011.23 1011.18 1011.13 1011.11 1011.14 1011.23 1011.39 1011.63 1011.93 1012.29 1012.68 1013.09 1013.48 1013.84 1014.15 1014.41 1014.60 1014.74 1014.82
1007.66 1007.68 1007.74 1007.86 1008.03 1008.23 1008.44 1008.65 1008.83 1008.98 1009.09 1009.17 1009.25 1009.33 1009.42 1009.56 1009.73 1009.94 1010.17 1010.42 1010.65 1010.85 1011.01 1011.12 1011.17 1011.18 1011.15 1011.13 1011.12 1011.17 1011.28 1011.47 1011.75 1012.10 1012.50 1012.94 1013.38 1013.79 1014.16 1014.46 1014.70 1014.86 1014.97
1007.06 1007.11 1007.20 1007.34 1007.52 1007.73 1007.95 1008.15 1008.31 1008.42 1008.48 1008.50 1008.50 1008.50 1008.54 1008.62 1008.78 1009.00 1009.29 1009.63 1009.98 1010.32 1010.62 1010.85 1011.02 1011.11 1011.14 1011.14 1011.14 1011.16 1011.23 1011.38 1011.62 1011.95 1012.33 1012.77 1013.21 1013.64 1014.03 1014.36 1014.62 1014.81 1014.93
1006.36 1006.43 1006.55 1006.71 1006.92 1007.14 1007.37 1007.57 1007.72 1007.81 1007.84 1007.81 1007.76 1007.71 1007.70 1007.75 1007.89 1008.13 1008.46 1008.86 1009.31 1009.77 1010.19 1010.55 1010.83 1011.02 1011.13 1011.17 1011.19 1011.21 1011.26 1011.38 1011.57 1011.85 1012.19 1012.59 1013.00 1013.41 1013.79 1014.12 1014.39 1014.59 1014.73
1005.54 1005.63 1005.76 1005.94 1006.15 1006.39 1006.63 1006.84 1006.99 1007.08 1007.11 1007.07 1007.01 1006.95 1006.92 1006.97 1007.11 1007.37 1007.74 1008.20 1008.72 1009.26 1009.79 1010.26 1010.64 1010.92 1011.11 1011.22 1011.27 1011.30 1011.35 1011.44 1011.59 1011.81 1012.09 1012.42 1012.77 1013.13 1013.47 1013.77 1014.02 1014.22 1014.37
1004.59 1004.67 1004.80 1004.97 1005.19 1005.43 1005.67 1005.89 1006.06 1006.18 1006.23 1006.22 1006.19 1006.16 1006.17 1006.25 1006.43 1006.73 1007.14 1007.64 1008.22 1008.83 1009.42 1009.97 1010.43 1010.80 1011.06 1011.24 1011.34 1011.40 1011.46 1011.53 1011.64 1011.80 1012.02 1012.26 1012.54 1012.82 1013.10 1013.35 1013.57 1013.76 1013.90
1003.53 1003.57 1003.67 1003.82 1004.01 1004.24 1004.47 1004.70 1004.90 1005.05 1005.15 1005.22 1005.26 1005.31 1005.40 1005.55 1005.80 1006.15 1006.61 1007.16 1007.77 1008.42 1009.06 1009.65 1010.18 1010.61 1010.94 1011.17 1011.33 1011.44 1011.52 1011.60 1011.69 1011.81 1011.96 1012.13 1012.33 1012.53 1012.73 1012.92 1013.10 1013.26 1013.39
1002.39 1002.37 1002.41 1002.51 1002.66 1002.85 1003.06 1003.29 1003.51 1003.71 1003.88 1004.04 1004.19 1004.35 1004.55 1004.81 1005.15 1005.57 1006.09 1006.67 1007.31 1007.98 1008.64 1009.26 1009.82 1010.29 1010.68 1010.98 1011.20 1011.37 1011.49 1011.59 1011.69 1011.79 1011.90 1012.02 1012.14 1012.28 1012.41 1012.54 1012.66 1012.78 1012.88
1001.23 1001.14 1001.10 1001.12 1001.21 1001.35 1001.53 1001.74 1001.97 1002.22 1002.46 1002.72 1002.98 1003.27 1003.60 1003.98 1004.42 1004.93 1005.51 1006.13 1006.79 1007.46 1008.13 1008.75 1009.33 1009.83 1010.26 1010.62 1010.91 1011.15 1011.34 1011.49 1011.62 1011.74 1011.84 1011.93 1012.01 1012.08 1012.15 1012.22 1012.29 1012.35 1012.42
1000.14 999.95 999.82 999.77 999.78 999.86 999.99 1000.18 1000.42 1000.69 1001.00 1001.34 1001.71 1002.12 1002.58 1003.08 1003.62 1004.22 1004.85 1005.51 1006.18 1006.86 1007.52 1008.14 1008.72 1009.25 1009.72 1010.13 1010.49 1010.80 1011.07 1011.30 1011.49 1011.65 1011.77 1011.86 1011.92 1011.96 1011.98 1012.00 1012.00 1012.01 1012.01
999.16 998.88 998.68 998.54 998.49 998.51 998.60 998.76 998.99 999.29 999.64 1000.04 1000.50 1001.01 1001.56 1002.16 1002.79 1003.46 1004.15 1004.84 1005.53 1006.20 1006.86 1007.47 1008.06 1008.60 1009.10 1009.57 1010.00 1010.39 1010.74 1011.05 1011.32 1011.53 1011.70 1011.81 1011.87 1011.89 1011.88 1011.84 1011.78 1011.71 1011.64
998.33 997.97 997.70 997.52 997.42 997.40 997.46 997.61 997.83 998.13 998.51 998.95 999.46 1000.04 1000.66 1001.33 1002.03 1002.75 1003.47 1004.20 1004.90 1005.58 1006.23 1006.84 1007.43 1007.99 1008.52 1009.03 1009.52 1009.98 1010.41 1010.79 1011.13 1011.41 1011.62 1011.76 1011.84 1011.85 1011.80 1011.71 1011.59 1011.44 1011.28
Thickness
5798 5798 5796 5796 5795 5795 5794 5793 5792 5791 5790 5790 5789 5789 5787 5786 5786 5783 5779 5778 5777 5774 5772 5770 5768 5766 5765 5763 5762 5760 5759 5758 5758 5757 5756 5755 5753 5752 5751 5749 5748 5746 5744
5799 5798 5796 5795 5795 5795 5794 5793 5792 5791 5790 5789 5788 5788 5786 5785 5784 5783 5780 5778 5776 5774 5772 5770 5768 5766 5765 5763 5762 5761 5759 5758 5757 5756 5755 5754 5752 5751 5750 5748 5747 5745 5744
5799 5798 5797 5795 5795 5795 5794 5792 5792 5791 5789 5789 5787 5787 5786 5785 5784 5782 5780 5778 5775 5773 5772 5770 5768 5766 5764 5763 5762 5760 5759 5758 5757 5756 5755 5753 5752 5750 5749 5747 5746 5744 5743
5799 5797 5796 5795 5795 5795 5793 5791 5789 5788 5786 5786 5785 5786 5787 5786 5784 5783 5781 5779 5776 5774 5771 5769 5767 5766 5764 5762 5761 5760 5759 5757 5756 5755 5754 5753 5751 5749 5748 5747 5745 5743 5742
5798 5797 5796 5795 5795 5794 5792 5790 5788 5786 5783 5783 5784 5786 5786 5785 5784 5783 5781 5779 5777 5774 5772 5769 5767 5765 5763 5762 5760 5759 5758 5757 5755 5754 5753 5752 5750 5748 5747 5746 5744 5743 5742
5798 5797 5796 5794 5794 5792 5789 5788 5785 5785 5783 5782 5783 5784 5784 5785 5784 5782 5780 5779 5776 5774 5772 5770 5766 5764 5762 5761 5759 5758 5757 5755 5754 5753 5752 5750 5748 5747 5745 5744 5743 5742 5741
5796 5795 5793 5792 5791 5789 5787 5785 5783 5781 5780 5781 5777 5775 5779 5783 5781 5781 5779 5777 5775 5773 5771 5769 5766 5763 5761 5758 5757 5755 5754 5753 5752 5751 5749 5748 5746 5745 5743 5742 5741 5741 5740
5794 5795 5791 5790 5789 5787 5785 5783 5780 5777 5777 5778 5772 5766 5764 5768 5773 5778 5776 5773 5772 5771 5769 5767 5764 5762 5760 5757 5755 5753 5751 5750 5749 5748 5747 5745 5743 5742 5741 5740 5739 5738 5738
5792 5791 5789 5788 5787 5785 5782 5780 5778 5775 5771 5773 5773 5765 5756 5753 5759 5768 5770 5770 5768 5767 5766 5765 5762 5760 5758 5755 5753 5751 5749 5747 5746 5745 5744 5743 5741 5740 5739 5737 5736 5736 5735
5790 5789 5787 5785 5784 5782 5779 5778 5777 5774 5770 5766 5768 5768 5765 5760 5752 5752 5759 5763 5764 5763 5762 5762 5759 5757 5755 5753 5751 5748 5746 5744 5742 5741 5740 5739 5738 5737 5736 5735 5733 5732 5732
5788 5786 5784 5782 5780 5778 5776 5774 5773 5770 5768 5765 5763 5762 5761 5759 5756 5748 5745 5750 5754 5757 5758 5758 5756 5754 5752 5750 5747 5745 5743 5740 5738 5736 5735 5734 5734 5733 5731 5730 5729 5728 5727
5783 5782 5782 5779 5777 5774 5772 5770 5769 5767 5764 5763 5761 5759 5756 5752 5750 5747 5743 5743 5745 5750 5753 5754 5752 5750 5748 5744 5743 5741 5738 5735 5733 5732 5730 5729 5729 5728 5726 5725 5724 5723 5723
5778 5778 5777 5774 5772 5770 5769 5767 5765 5762 5761 5759 5757 5756 5755 5753 5752 5749 5743 5741 5741 5745 5747 5748 5748 5746 5743 5740 5737 5735 5733 5730 5728 5727 5725 5724 5723 5722 5721 5720 5719 5718 5718
5776 5775 5773 5771 5769 5767 5765 5763 5761 5759 5757 5755 5754 5752 5750 5751 5750 5748 5743 5738 5733 5735 5737 5738 5741 5741 5738 5735 5733 5730 5727 5725 5723 5721 5719 5718 5717 5716 5715 5714 5713 5712 5712
5774 5772 5769 5767 5764 5762 5760 5758 5755 5754 5752 5750 5749 5748 5746 5746 5747 5746 5744 5739 5730 5723 5725 5730 5731 5734 5731 5730 5728 5725 5722 5720 5718 5717 5714 5712 5710 5709 5708 5707 5707 5706 5706
5769 5767 5765 5762 5760 5758 5756 5753 5751 5749 5747 5746 5745 5743 5741 5741 5741 5741 5740 5737 5733 5725 5720 5725 5726 5728 5726 5724 5722 5719 5718 5716 5713 5711 5709 5707 5705 5704 5702 5701 5700 5700 5700
5765 5762 5760 5757 5755 5752 5750 5747 5745 5744 5742 5740 5739 5737 5735 5735 5733 5733 5733 5731 5728 5723 5716 5718 5720 5720 5718 5716 5714 5713 5712 5710 5708 5706 5704 5702 5700 5698 5697 5696 5694 5694 5693
5761 5758 5756 5752 5749 5747 5745 5742 5739 5738 5736 5734 5732 5731 5729 5729 5726 5725 5724 5722 5720 5718 5713 5709 5710 5711 5709 5709 5708 5707 5707 5706 5704 5701 5699 5697 5695 5693 5691 5690 5689 5688 5687
5756 5754 5751 5747 5744 5741 5739 5737 5734 5733 5731 5730 5728 5725 5723 5721 5718 5718 5716 5714 5713 5712 5709 5704 5702 5704 5703 5703 5701 5700 5700 5699 5699 5697 5694 5692 5690 5688 5686 5684 5683 5683 5682
5751 5748 5745 5742 5739 5736 5733 5730 5728 5726 5725 5724 5723 5721 5719 5716 5713 5711 5709 5707 5705 5703 5702 5699 5697 5696 5695 5695 5694 5690 5689 5690 5691 5691 5689 5686 5685 5683 5681 5679 5678 5678 5677
5747 5743 5740 5736 5733 5730 5727 5724 5721 5721 5719 5717 5716 5715 5714 5711 5708 5705 5703 5700 5698 5694 5693 5691 5689 5687 5685 5684 5683 5684 5681 5681 5682 5683 5681 5680 5678 5676 5674 5673 5673 5672 5672
5741 5738 5735 5730 5727 5724 5721 5717 5715 5713 5713 5711 5708 5707 5707 5704 5702 5699 5697 5695 5692 5688 5684 5682 5680 5678 5677 5676 5676 5676 5673 5671 5670 5674 5672 5672 5673 5671 5669 5668 5668 5668 5666
5734 5731 5727 5723 5719 5716 5714 5711 5708 5708 5707 5705 5702 5699 5698 5697 5694 5691 5690 5688 5686 5684 5681 5678 5673 5672 5670 5670 5668 5667 5665 5664 5663 5667 5666 5664 5666 5665 5665 5664 5664 5662 5661
5726 5723 5719 5716 5713 5710 5707 5704 5701 5700 5699 5698 5695 5693 5689 5686 5685 5682 5681 5680 5679 5677 5676 5673 5670 5668 5667 5665 5663 5661 5660 5659 5661 5661 5661 5657 5659 5659 5660 5658 5658 5656 5654
5719 5716 5713 5710 5706 5702 5699 5696 5693 5692 5691 5690 5688 5686 5682 5679 5676 5674 5672 5670 5669 5669 5669 5667 5665 5663 5661 5659 5657 5654 5653 5651 5650 5652 5654 5651 5652 5652 5652 5651 5650 5649 5648
5713 5710 5706 5703 5699 5695 5691 5688 5684 5684 5682 5680 5679 5676 5673 5670 5668 5665 5663 5662 5660 5660 5660 5659 5656 5655 5654 5653 5651 5648 5646 5644 5643 5644 5647 5645 5644 5643 5642 5644 5644 5642 5641